Location: Henham
(51.9333°N, 0.2500°E)
Time: 22:16:17
(UTC+00:00)

Resurs 01 Rocket - Visible Passes

Search period start: 28 January 2020 00:00
Search period end: 07 February 2020 00:00
Orbit: 635 x 643 km, 98.0° (Epoch: 28 January)

Date Brightness Start Highest point End Pass type
(mag) Time Alt. Az. Time Alt. Az. Time Alt. Az.
29 Jan 4.1 19:16:47 10° N 19:16:47 10° N 19:16:53 10° N visible
30 Jan 4.2 19:40:10 11° N 19:40:10 11° N 19:40:26 10° N visible
31 Jan 4.3 20:03:32 12° N 20:03:32 12° N 20:03:51 10° N visible
01 Feb 4.0 18:49:21 10° NNE 18:49:21 10° NNE 18:49:29 10° NNE visible
01 Feb 4.4 20:26:55 11° NNW 20:26:55 11° NNW 20:27:09 10° NNW visible
02 Feb 3.9 19:12:44 13° NNE 19:12:44 13° NNE 19:13:17 10° N visible
02 Feb 4.6 20:50:17 10° NNW 20:50:17 10° NNW 20:50:20 10° NNW visible
03 Feb 3.9 19:36:05 14° N 19:36:05 14° N 19:36:51 10° N visible
04 Feb 4.0 19:59:27 15° N 19:59:27 15° N 20:00:18 10° N visible
05 Feb 3.8 18:45:16 12° NNE 18:45:16 12° NNE 18:45:50 10° NNE visible
05 Feb 4.1 20:22:49 15° NNW 20:22:49 15° NNW 20:23:37 10° NNW visible
06 Feb 3.7 19:08:37 15° NNE 19:08:37 15° NNE 19:09:41 10° N visible
06 Feb 4.3 20:46:11 14° NNW 20:46:11 14° NNW 20:46:49 10° NNW visible
